Regional Weather Roundup
Issued by NWS

Home | Current Version | Previous Version | Text Only | Print | Product List | Glossary On
Versions: 1 2 3 4 5 6 7 8 9 10 11 12 13 14 15 16 17 18 19 20 21 22 23 24 25 26 27 28 29 30 31 32 33 34 35 36 37 38 39 40 41 42 43 44 45 46 47 48 49 50
000
ASUS43 KMPX 270701
RWRMN
WEATHER ROUNDUP FOR MINNESOTA
NATIONAL WEATHER SERVICE TWIN CITIES/CHANHASSEN MN
200 AM CDT MON APR 27 2015


NOTE: "FAIR" INDICATES FEW OR NO CLOUDS BELOW 12,000 FEET WITH NO
SIGNIFICANT WEATHER AND/OR OBSTRUCTIONS TO VISIBILITY. N/A MEANS
CURRENT SKY AND/OR WEATHER CONDITIONS ARE NOT AVAILABLE.

MNZ060>063-068>070-270800-
   Twin Cities Metro

CITY           SKY/WX    TMP DP  RH WIND       PRES   REMARKS
TWIN CITIES    CLEAR     47  25  42 NE5       30.16F
ST PAUL        CLEAR     44  28  53 CALM      30.17F
CRYSTAL        CLEAR     41  27  57 CALM      30.16S
BLAINE         CLEAR     39  30  70 CALM      30.17S
LAKEVILLE      CLEAR     41  27  56 CALM      30.16S
EDEN PRAIRIE   CLEAR     47  24  40 NE5       30.15F
SOUTH ST PAUL  CLEAR     42  29  58 CALM      30.16S
LAKE ELMO      FAIR      36  28  75 CALM      30.17F
$$
MNZ001>005-007-008-013>017-022>024-027-028-270800-
   Northwest Minnesota

CITY           SKY/WX    TMP DP  RH WIND       PRES   REMARKS
BEMIDJI        CLEAR     33  24  70 CALM      30.17S
HALLOCK        PTCLDY    43  21  42 S3        30.15S
ROSEAU         PTCLDY    37  28  70 CALM      30.18S
WARROAD        PTCLDY    36  28  75 CALM      30.19S
THIEF RVR FALL PTCLDY    46  21  36 SE5       30.18S
CROOKSTON      CLEAR     46  25  42 SE6       30.17S
FOSSTON        PTCLDY    37  25  60 CALM      30.18S
DETROIT LAKES  CLEAR     43  32  65 CALM      30.19R
MOORHEAD       CLEAR     45  25  45 SE3       30.18R
PARK RAPIDS    CLEAR     34  27  75 N5        30.17S WCI  30
MAHNOMEN       FAIR      38  24  58 E6        30.17S
$$
MNZ006-009>011-018-025>026-270800-
   North Central Minnesota

CITY           SKY/WX    TMP DP  RH WIND       PRES   REMARKS
BAUDETTE       PTCLDY    34  26  72 CALM      30.18S
FLAG ISLAND    CLEAR     41  32  70 CALM      30.18S
INTL FALLS     CLEAR     27  22  81 CALM      30.19S
WASKISH        CLEAR     30  25  80 CALM      30.18F
BIG FORK       CLEAR     28  21  74 CALM      30.19S
LONGVILLE      CLEAR     28  27  93 CALM      30.18S
GRAND RAPIDS   CLEAR     32  19  59 CALM      30.18S
CRANE LAKE     CLEAR     27  23  86 CALM      30.22R
ORR            CLEAR     28  21  74 CALM      30.16F
COOK           CLEAR     28  21  74 CALM      30.19S
WALKER         FAIR      32  18  56 CALM      30.17F
$$
MNZ012-019>021-037-270800-
   Northeast Minnesota

CITY           SKY/WX    TMP DP  RH WIND       PRES   REMARKS
DULUTH         CLEAR     32  22  66 CALM      30.18R
ELY            CLEAR     28  25  86 CALM      30.19R
HIBBING        CLEAR     26  19  74 NW3       30.18S
EVELETH        CLEAR     28  23  80 CALM      30.19S
DULUTH HARBOR  CLEAR     36  34  93 CALM      30.21S
TWO HARBORS    CLEAR     30  25  80 CALM      30.17S
SILVER BAY     CLEAR     28  25  86 CALM      30.17S
GRAND MARAIS     N/A     39  27  62 CALM      30.18F
G MARAIS ARPRT CLEAR     32  21  64 CALM      30.17F
$$
MNZ029>031-032-039>041-046>048-054>057-064-270800-
   West Central Minnesota

CITY           SKY/WX    TMP DP  RH WIND       PRES   REMARKS
FERGUS FALLS   CLEAR     50  16  25 SE5       30.19S
WHEATON        CLEAR     36  23  60 S3        30.20R
MORRIS         CLEAR     43  21  42 CALM      30.18R
ALEXANDRIA     CLEAR     38  28  67 CALM      30.18S
ELBOW LAKE     FAIR      46  28  48 SE5       30.18R
WADENA         CLEAR     34  25  69 CALM      30.17S
GLENWOOD       CLEAR     45  19  36 CALM      30.17S
APPLETON       CLEAR     37  27  65 CALM      30.18R
BENSON         CLEAR     34  27  75 CALM      30.18R
ORTONVILLE     CLEAR     41  27  56 CALM      30.19R
MADISON        CLEAR     37  21  52 SW3       30.19R
WILLMAR        FAIR      39  28  65 CALM      30.19R
$$
MNZ033>034-036-042>043-049>051-058-059-270800-
   Central Minnesota

CITY           SKY/WX    TMP DP  RH WIND       PRES   REMARKS
ST CLOUD       CLEAR     35  23  61 E5        30.17S WCI  31
SAUK CENTRE    FAIR      34  28  79 CALM      30.18S
PAYNESVILLE    CLEAR     32  27  82 CALM      30.18R
AITKIN         CLEAR     28  23  80 CALM      30.17S
PINE RIVER     CLEAR     32  27  80 CALM      30.21S
BRAINERD       CLEAR     35  23  61 CALM      30.18R
STAPLES        CLEAR     34  25  69 CALM      30.18R
LONG PRAIRIE   FAIR      36  28  75 CALM      30.18S
LITTLE FALLS   CLEAR     32  28  86 CALM      30.18S
LITCHFIELD     CLEAR     41  27  56 CALM      30.18R
BUFFALO        CLEAR     37  28  67 CALM      30.18S
MAPLE LAKE     CLEAR     37  32  81 CALM      30.18S
$$
MNZ037-044-045-052-053-270800-
   East Central Minnesota

CITY           SKY/WX    TMP DP  RH WIND       PRES   REMARKS
PRINCETON      CLEAR     36  27  69 CALM      30.18S
MORA           CLEAR     30  27  86 CALM      30.20S
CAMBRIDGE      CLEAR     36  25  64 CALM      30.16S
RUSH CITY      PTCLDY    36  26  66 CALM      30.18S
MOOSE LAKE     CLEAR     30  27  86 CALM      30.18R
HINCKLEY       FAIR      36  25  64 N3        30.18S
CLOQUET        CLEAR     28  21  74 CALM      30.18S
MCGREGOR       CLEAR     32  27  80 CALM      30.19S
$$
MNZ071>073-080-081-089-090-097-098-270800-
   Southwest Minnesota

CITY           SKY/WX    TMP DP  RH WIND       PRES   REMARKS
MONTEVIDEO     CLEAR     39  19  45 CALM      30.19R
GRANITE FALLS  CLEAR     33  20  58 CALM      30.20R
CANBY          CLEAR     37  29  71 SW5       30.20R
MARSHALL       CLEAR     36  19  51 NW7       30.18R
REDWOOD FALLS  CLEAR     48  21  34 E3        30.17R
OLIVIA         CLEAR     39  21  48 CALM      30.16R
PIPESTONE      CLEAR     43  19  39 E3        30.17S
WORTHINGTON    CLEAR     36  21  55 W3        30.17S
JACKSON        CLEAR     39  23  52 CALM      30.17S
TRACY          CLEAR     41  20  43 SW6       30.18R
SLAYTON        CLEAR     37  21  52 CALM      30.19S
$$
MNZ065>067-074>077-082>085-091>093-270800-
   South Central Minnesota

CITY           SKY/WX    TMP DP  RH WIND       PRES   REMARKS
MANKATO        CLEAR     46  25  42 E7        30.16R
NEW ULM        CLEAR     46  21  36 E3        30.17R
ST JAMES       CLEAR     43  19  39 CALM      30.18R
FAIRMONT       CLEAR     39  25  56 W3        30.15S
GLENCOE        CLEAR     40  29  64 CALM      30.16R
FARIBAULT      CLEAR     43  27  52 CALM      30.16R
OWATONNA       CLEAR     39  23  52 CALM      30.15S
WASECA         CLEAR     43  25  49 NE6       30.17R
ALBERT LEA     CLEAR     45  27  49 NE3       30.15R
$$
MNZ078>079-086>088-094>096-270800-
   Southeast Minnesota

CITY           SKY/WX    TMP DP  RH WIND       PRES   REMARKS
ROCHESTER      CLEAR     42  26  53 NE8       30.14R
RED WING       CLEAR     39  27  60 CALM      30.15S
STANTON        CLEAR     38  29  68 CALM      30.15S
DODGE CENTER   PTCLDY    43  27  52 N5        30.14S
WINONA         CLEAR     43  32  65 CALM      30.14S
AUSTIN         CLEAR     43  27  52 CALM      30.14R
PRESTON        CLEAR     41  26  53 N5        30.14R
$$
ABBREVIATIONS USED IN REMARKS
   TC - TEMPERATURES IN CELSIUS
  WCI - WIND CHILL INDEX
   HX - HEAT INDEX
  VSB - VISIBILITY
$$


USA.gov is the U.S. government's official web portal to all federal, state and local government web resources and services.